This is the latest recevied weather packets stored in our database for station/object SP4MAZ-13. If no packets are shown the sender has not sent any weather packets the latest 10 day(s).
| Time | Temp. | Humidity | Pressure | Rain* | Wind** | Luminosity | Snow |
|---|---|---|---|---|---|---|---|
| 1777408020 | 2.78° C | 72% | 2147.4 hPa | - | - | - | - |
| 1777406202 | 3.33° C | 63% | 2147.4 hPa | - | - | - | - |
| 1777404991 | 3.89° C | 58% | 2147.4 hPa | - | - | - | - |
| 1777404687 | 3.89° C | 58% | 2147.4 hPa | - | - | - | - |
| 1777404384 | 3.89° C | 60% | 2147.4 hPa | - | - | - | - |
| 1777404080 | 3.89° C | 57% | 2147.4 hPa | - | - | - | - |
| 1777403777 | 3.89° C | 56% | 2147.4 hPa | - | - | - | - |
| 1777403170 | 3.89° C | 54% | 2147.4 hPa | - | - | - | - |
| 1777401046 | 4.44° C | 45% | 2147.4 hPa | - | - | - | - |
| 1777400439 | 5° C | 46% | 2147.4 hPa | - | - | - | - |
| 1777399529 | 5° C | 40% | 2147.4 hPa | - | - | - | - |
| 1777398922 | 5.56° C | 40% | 2147.4 hPa | - | - | - | - |
| 1777397407 | 6.11° C | 36% | 2147.4 hPa | - | - | - | - |
| 1777397104 | 6.11° C | 34% | 2147.4 hPa | - | - | - | - |
| 1777395890 | 6.67° C | 34% | 2147.4 hPa | - | - | - | - |
| 1777394980 | 7.22° C | 35% | 2147.4 hPa | - | - | - | - |
| 1777394375 | 7.22° C | 33% | 2147.4 hPa | - | - | - | - |
| 1777394071 | 7.22° C | 33% | 2147.4 hPa | - | - | - | - |
| 1777393768 | 7.22° C | 32% | 2147.4 hPa | - | - | - | - |
| 1777393465 | 7.22° C | 33% | 2147.4 hPa | - | - | - | - |
| 1777392860 | 7.78° C | 42% | 2147.4 hPa | - | - | - | - |
| 1777392253 | 7.78° C | 37% | 2147.4 hPa | - | - | - | - |
| 1777389526 | 7.22° C | 51% | 2147.4 hPa | - | - | - | - |
| 1777387098 | 9.44° C | 42% | 2147.4 hPa | - | - | - | - |
| 1777384367 | 7.78° C | 44% | 2147.4 hPa | - | - | - | - |
* Rain since midnight (hover to see other rain measurements)
** Current wind speed in m/s (hover to see current wind gust speed)